sat.trackr.live / text

‹ back to catalog

STARLINK-33993

NORAD 63949 · 2025-098Z

PAYLOAD ACTIVE UNKNOWN

§ Identity

Operator
Country
US
Launch date
2025-05-13
Launch site
AFWTR
Launch vehicle
Mass (kg)
RCS (m²)

Purposes: comms

External: N2YO · Heavens-Above · Gunter

§ Orbital elements

Epoch: 2026-05-24T21:53:20.558400Z

Period
96.11 min
Inclination
70.0009°
Eccentricity
0.0002960
Mean motion
14.98336255 rev/d
Perigee alt
570.0 km
Apogee alt
574.1 km
Semi-major
6,950.2 km
B*
5.0754e-4
RAAN
82.1071°
Arg perigee
264.8794°
Mean anomaly
95.2028°
Rev number
5,796

§ Raw data

STARLINK-339931 63949U 25098Z   26144.91204350  .00005969  00000+0  50754-3 0  99982 63949  70.0009  82.1071 0002960 264.8794  95.2028 14.98336255 57964

JSON: /api/v1/satellites/63949 · /tle

For live sub-satellite position, see the globe view (requires WebGL).

§ Visibility from observer

Set your observer location to see the next 7 days of passes ≥ 10°. The values pass through the URL so the page stays shareable.

No JS? Fill the form by hand. The geolocation button needs JavaScript.